"startDT [UTC]","vpos","CH4 [ppm]","stdev(CH4) [ppm]","CO2 [ppm]","stdev(CO2) [ppm]","H2O [ppm]","stdev(H2O)","p_LGR [torr]","T_LGR [C]","mt1_LGR [us]","mt2_LGR [us]","T_ECpre [C]","T_EC1 [C]","T_EC2 [C]","p_inlet [hPa]","p_in [hPa]","p_out [hPa]","T_inlet [C]","RH_inlet [%]","dwpt_inlet [C]","T_vent [C]","RH_vent [%]","dwpt_vent [C]","flow_vent [l min-1]","flow_inlet [l min-1]","dwpt_sample [C]","T_room [C]"
2012-01-09 00:00:00,0.0,1.9440,0.0011,405.25,0.24,-1.0,0.0,138.16,26.81,24.58,36.25,0.04,-272.74,-272.74,-48,551,-943,21.6,1.1,-35.6,21.6,1.2,-35.3,5.73,2.41,-31.9,26.6
2012-01-09 00:01:00,0.0,1.9437,0.0012,405.15,0.21,-1.0,0.0,138.15,26.82,24.58,36.26,0.04,-272.74,-272.74,-49,551,-943,21.6,1.1,-35.6,21.6,1.2,-35.4,5.73,2.49,-31.9,26.6
2012-01-09 00:02:00,0.0,1.9441,0.0009,405.22,0.23,-1.0,0.0,138.16,26.82,24.58,36.26,0.04,-272.74,-272.74,-48,550,-943,21.6,1.1,-35.6,21.6,1.2,-35.1,5.73,2.50,-31.9,26.6
2012-01-09 00:03:00,0.0,1.9438,0.0010,405.21,0.22,-1.0,0.0,138.15,26.82,24.58,36.26,0.04,-272.74,-272.74,-48,551,-943,21.6,1.2,-35.4,21.6,1.2,-35.1,5.73,2.41,-31.9,26.6
2012-01-09 00:04:00,0.0,1.9436,0.0011,405.27,0.24,-1.0,0.0,138.15,26.82,24.58,36.25,0.04,-272.74,-272.74,-48,551,-943,21.6,1.2,-35.4,21.6,1.2,-35.1,5.73,2.38,-31.9,26.6
2012-01-09 00:05:00,0.0,1.9437,0.0011,405.26,0.25,-1.0,0.0,138.15,26.82,24.58,36.25,0.04,-272.74,-272.74,-49,551,-943,21.6,1.1,-35.6,21.6,1.2,-35.1,5.73,2.46,-31.9,26.6
2012-01-09 00:06:00,0.0,1.9440,0.0009,405.31,0.23,-1.0,0.0,138.15,26.82,24.58,36.25,0.04,-272.74,-272.74,-48,551,-943,21.6,1.1,-35.6,21.6,1.2,-35.3,5.73,2.51,-31.9,26.6
2012-01-09 00:07:00,0.0,1.9433,0.0009,405.28,0.21,-1.0,0.0,138.15,26.82,24.58,36.25,0.04,-272.74,-272.74,-48,551,-943,21.6,1.1,-35.6,21.6,1.2,-35.4,5.73,2.45,-31.9,26.6
2012-01-09 00:08:00,0.0,1.9439,0.0011,405.24,0.21,-1.0,0.0,138.15,26.82,24.58,36.25,0.04,-272.74,-272.74,-49,551,-943,21.6,1.1,-35.6,21.6,1.2,-35.3,5.73,2.38,-31.9,26.6
2012-01-09 00:09:00,0.0,1.9437,0.0011,405.27,0.23,-1.0,0.0,138.15,26.82,24.58,36.25,0.04,-272.74,-272.74,-48,551,-943,21.6,1.1,-35.6,21.6,1.2,-35.3,5.73,2.43,-31.9,26.6
2012-01-09 00:10:00,0.0,1.9441,0.0010,405.29,0.25,-1.0,0.0,138.15,26.82,24.58,36.25,0.04,-272.74,-272.74,-48,550,-943,21.6,1.1,-35.7,21.6,1.2,-35.4,5.73,2.51,-31.9,26.6
2012-01-09 00:11:00,0.0,1.9446,0.0011,405.31,0.24,-1.0,0.0,138.15,26.82,24.58,36.25,0.04,-272.74,-272.74,-48,551,-943,21.6,1.1,-35.7,21.6,1.2,-35.4,5.73,2.47,-32.0,26.6
2012-01-09 00:12:00,0.0,1.9443,0.0010,405.29,0.22,-1.0,0.0,138.15,26.82,24.58,36.26,0.04,-272.74,-272.74,-49,551,-943,21.6,1.1,-35.6,21.6,1.2,-35.4,5.73,2.39,-32.0,26.6
2012-01-09 00:13:00,0.0,1.9441,0.0010,405.31,0.21,-1.0,0.0,138.15,26.82,24.58,36.25,0.04,-272.74,-272.74,-48,551,-943,21.6,1.1,-35.6,21.6,1.2,-35.3,5.73,2.39,-32.0,26.6
2012-01-09 00:14:00,0.0,1.9444,0.0013,405.26,0.22,-1.0,0.0,138.15,26.82,24.58,36.26,0.04,-272.74,-272.74,-48,551,-943,21.6,1.1,-35.7,21.6,1.2,-35.3,5.73,2.50,-31.9,26.6
2012-01-09 00:15:00,0.0,1.9445,0.0012,405.40,0.26,-1.0,0.0,138.15,26.82,24.58,36.25,0.04,-272.74,-272.74,-49,551,-943,21.6,1.1,-35.9,21.6,1.2,-35.4,5.73,2.49,-32.0,26.6
2012-01-09 00:16:00,0.0,1.9440,0.0012,405.31,0.24,-1.0,0.0,138.15,26.82,24.58,36.25,0.04,-272.74,-272.74,-48,551,-943,21.6,1.1,-35.9,21.6,1.1,-35.6,5.73,2.39,-32.0,26.6
2012-01-09 00:17:00,0.0,1.9442,0.0011,405.29,0.26,-1.0,0.0,138.15,26.82,24.58,36.26,0.04,-272.74,-272.74,-48,551,-943,21.6,1.1,-35.8,21.6,1.1,-35.6,5.73,2.39,-32.0,26.6
2012-01-09 00:18:00,0.0,1.9438,0.0012,405.30,0.26,-1.0,0.0,138.15,26.83,24.58,36.25,0.04,-272.74,-272.74,-48,551,-943,21.6,1.1,-35.9,21.6,1.1,-35.5,5.73,2.48,-32.0,26.6
2012-01-09 00:19:00,0.0,1.9439,0.0011,405.31,0.28,-1.0,0.0,138.15,26.82,24.58,36.26,0.04,-272.74,-272.74,-49,551,-943,21.6,1.1,-35.8,21.6,1.2,-35.3,5.73,2.51,-32.0,26.6
2012-01-09 00:20:00,0.0,1.9442,0.0012,405.33,0.25,-1.0,0.0,138.15,26.83,24.58,36.26,0.04,-272.74,-272.74,-48,551,-943,21.6,1.1,-35.6,21.6,1.2,-35.4,5.73,2.42,-32.0,26.6
2012-01-09 00:21:00,0.0,1.9441,0.0010,405.26,0.29,-1.0,0.0,138.15,26.82,24.58,36.26,0.04,-272.74,-272.74,-48,551,-943,21.6,1.1,-35.6,21.6,1.2,-35.4,5.73,2.38,-32.0,26.6
2012-01-09 00:22:00,0.0,1.9441,0.0009,405.29,0.21,-1.0,0.0,138.15,26.82,24.58,36.26,0.04,-272.74,-272.74,-49,551,-943,21.6,1.1,-35.6,21.6,1.2,-35.2,5.73,2.47,-32.0,26.6
2012-01-09 00:23:00,0.0,1.9441,0.0010,405.30,0.21,-1.0,0.0,138.15,26.82,24.58,36.26,0.04,-272.74,-272.74,-48,551,-943,21.6,1.2,-35.3,21.6,1.2,-35.1,5.73,2.51,-32.0,26.6
2012-01-09 00:24:00,0.0,1.9443,0.0009,405.24,0.20,-1.0,0.0,138.15,26.82,24.58,36.26,0.04,-272.74,-272.74,-48,551,-943,21.6,1.2,-35.3,21.6,1.2,-35.1,5.73,2.43,-32.0,26.6
2012-01-09 00:25:00,0.0,1.9443,0.0012,405.32,0.20,-1.0,0.3,138.15,26.82,24.58,36.25,0.04,-272.74,-272.74,-49,551,-943,21.6,1.2,-35.3,21.6,1.2,-35.1,5.73,2.38,-32.0,26.6
2012-01-09 00:26:00,0.0,1.9441,0.0011,405.27,0.26,-1.0,0.0,138.15,26.83,24.58,36.26,0.04,-272.74,-272.74,-48,551,-943,21.6,1.2,-35.3,21.6,1.2,-34.9,5.73,2.46,-32.0,26.6
2012-01-09 00:27:00,0.0,1.9443,0.0010,405.33,0.22,-1.0,0.0,138.15,26.83,24.58,36.25,0.04,-272.74,-272.74,-48,551,-943,21.6,1.2,-35.3,21.6,1.2,-34.9,5.73,2.51,-32.0,26.6
2012-01-09 00:28:00,0.0,1.9444,0.0010,405.26,0.22,-1.0,0.0,138.15,26.83,24.58,36.26,0.04,-272.74,-272.74,-48,551,-943,21.6,1.2,-35.3,21.6,1.2,-35.0,5.73,2.44,-32.0,26.6
2012-01-09 00:29:00,0.0,1.9443,0.0011,405.34,0.26,-1.0,0.0,138.15,26.83,24.58,36.25,0.04,-272.74,-272.74,-49,551,-942,21.6,1.2,-35.4,21.6,1.2,-34.9,5.73,2.37,-32.0,26.6
2012-01-09 00:30:00,0.0,1.9442,0.0012,405.33,0.23,-1.0,0.0,138.15,26.83,24.58,36.26,0.04,-272.74,-272.74,-48,551,-943,21.6,1.2,-35.3,21.6,1.2,-34.9,5.73,2.46,-32.0,26.6
2012-01-09 00:31:00,0.0,1.9444,0.0009,405.32,0.19,-1.0,0.0,138.15,26.83,24.58,36.25,0.04,-272.74,-272.74,-48,551,-942,21.6,1.2,-35.2,21.6,1.2,-34.9,5.73,2.52,-32.0,26.6
2012-01-09 00:32:00,0.0,1.9438,0.0011,405.23,0.22,-1.0,0.0,138.15,26.83,24.58,36.26,0.04,-272.73,-272.74,-49,551,-943,21.6,1.2,-35.1,21.6,1.2,-34.6,5.73,2.43,-32.0,26.6
2012-01-09 00:33:00,0.0,1.9445,0.0010,405.28,0.22,-1.0,0.0,138.15,26.83,24.58,36.26,0.04,-272.74,-272.74,-48,550,-943,21.6,1.2,-35.0,21.6,1.2,-34.7,5.73,2.37,-32.0,26.6
2012-01-09 00:34:00,0.0,1.9449,0.0009,405.32,0.21,-1.0,0.0,138.15,26.83,24.58,36.26,0.04,-272.74,-272.74,-48,551,-942,21.6,1.2,-34.9,21.6,1.2,-34.7,5.73,2.45,-32.0,26.6
2012-01-09 00:35:00,0.0,1.9444,0.0011,405.30,0.24,-1.0,0.0,138.16,26.83,24.58,36.25,0.04,-272.74,-272.74,-49,551,-942,21.6,1.2,-34.8,21.6,1.2,-34.6,5.73,2.52,-32.0,26.6
2012-01-09 00:36:00,0.0,1.9441,0.0010,405.25,0.24,-1.0,0.0,138.15,26.83,24.58,36.26,0.04,-272.74,-272.74,-48,550,-942,21.6,1.2,-34.9,21.6,1.3,-34.6,5.73,2.44,-32.0,26.6
2012-01-09 00:37:00,0.0,1.9440,0.0011,405.29,0.25,-1.0,0.0,138.15,26.83,24.58,36.26,0.04,-272.74,-272.74,-48,551,-942,21.6,1.2,-34.8,21.6,1.3,-34.6,5.73,2.37,-32.0,26.6
2012-01-09 00:38:00,0.0,1.9445,0.0008,405.32,0.21,-1.0,0.0,138.16,26.83,24.58,36.26,0.04,-272.73,-272.74,-49,551,-943,21.6,1.2,-34.8,21.6,1.2,-34.6,5.73,2.44,-32.0,26.6
2012-01-09 00:39:00,0.0,1.9439,0.0010,405.31,0.24,-1.0,0.0,138.15,26.83,24.58,36.26,0.04,-272.74,-272.74,-48,551,-943,21.6,1.2,-34.8,21.6,1.3,-34.5,5.73,2.52,-32.0,26.6
2012-01-09 00:40:00,0.0,1.9442,0.0011,405.24,0.19,-1.0,0.0,138.15,26.83,24.58,36.26,0.04,-272.74,-272.74,-48,551,-943,21.6,1.2,-34.8,21.6,1.3,-34.4,5.73,2.43,-32.0,26.6
2012-01-09 00:41:00,0.0,1.9444,0.0010,405.31,0.30,-1.0,0.0,138.15,26.83,24.58,36.26,0.04,-272.74,-272.75,-49,551,-943,21.6,1.2,-34.6,21.7,1.3,-34.4,5.73,2.37,-32.1,26.6
2012-01-09 00:42:00,0.0,1.9441,0.0010,405.32,0.27,-1.0,0.0,138.15,26.83,24.58,36.25,0.04,-272.74,-272.74,-49,551,-942,21.6,1.2,-34.6,21.7,1.3,-34.4,5.73,2.46,-32.1,26.6
2012-01-09 00:43:00,0.0,1.9437,0.0011,405.28,0.21,-1.0,0.0,138.15,26.83,24.58,36.26,0.04,-272.73,-272.74,-48,551,-943,21.6,1.2,-34.6,21.6,1.3,-34.4,5.73,2.51,-32.1,26.6
2012-01-09 00:44:00,0.0,1.9441,0.0008,405.20,0.26,-1.0,0.0,138.15,26.83,24.58,36.27,0.04,-272.74,-272.74,-48,551,-943,21.6,1.2,-34.8,21.6,1.3,-34.5,5.73,2.41,-32.1,26.6
2012-01-09 00:45:00,0.0,1.9441,0.0009,405.27,0.23,-1.0,0.0,138.15,26.83,24.58,36.26,0.04,-272.74,-272.74,-49,551,-943,21.6,1.2,-35.1,21.6,1.2,-34.7,5.73,2.38,-32.0,26.6
2012-01-09 00:46:00,0.0,1.9440,0.0013,405.25,0.18,-1.0,0.0,138.15,26.83,24.58,36.26,0.04,-272.74,-272.74,-48,551,-942,21.6,1.2,-35.3,21.6,1.2,-35.0,5.73,2.47,-32.1,26.6
2012-01-09 00:47:00,0.0,1.9439,0.0010,405.30,0.25,-1.0,0.0,138.15,26.83,24.58,36.26,0.04,-272.74,-272.74,-48,551,-943,21.6,1.1,-35.6,21.6,1.2,-35.3,5.73,2.51,-32.1,26.6
2012-01-09 00:48:00,0.0,1.9441,0.0010,405.37,0.24,-1.0,0.0,138.15,26.84,24.58,36.25,0.04,-272.74,-272.74,-49,551,-943,21.6,1.1,-35.6,21.6,1.2,-35.3,5.73,2.41,-32.1,26.6
2012-01-09 00:49:00,0.0,1.9438,0.0009,405.29,0.22,-1.0,0.0,138.15,26.84,24.58,36.25,0.04,-272.74,-272.74,-48,551,-943,21.6,1.1,-35.6,21.6,1.2,-35.3,5.73,2.38,-32.1,26.7
2012-01-09 00:50:00,0.0,1.9440,0.0010,405.27,0.23,-1.0,0.0,138.15,26.84,24.58,36.26,0.04,-272.74,-272.74,-48,551,-943,21.6,1.1,-35.6,21.7,1.2,-35.3,5.73,2.49,-32.1,26.7
2012-01-09 00:51:00,0.0,1.9438,0.0012,405.30,0.20,-1.0,0.0,138.15,26.84,24.58,36.25,0.04,-272.74,-272.74,-49,551,-943,21.6,1.1,-35.6,21.7,1.2,-35.3,5.73,2.50,-32.1,26.6
2012-01-09 00:52:00,0.0,1.9442,0.0010,405.27,0.25,-1.0,0.0,138.15,26.84,24.58,36.26,0.04,-272.74,-272.74,-48,551,-943,21.6,1.1,-35.5,21.6,1.2,-35.1,5.73,2.39,-32.1,26.6
2012-01-09 00:53:00,0.0,1.9435,0.0009,405.25,0.25,-1.0,0.0,138.15,26.84,24.58,36.25,0.04,-272.74,-272.74,-48,550,-943,21.6,1.2,-35.3,21.7,1.2,-34.9,5.73,2.39,-32.1,26.6
2012-01-09 00:54:00,0.0,1.9433,0.0010,405.26,0.28,-1.0,0.0,138.15,26.84,24.58,36.26,0.04,-272.74,-272.74,-49,551,-942,21.6,1.2,-35.2,21.6,1.2,-34.9,5.73,2.51,-32.1,26.6
2012-01-09 00:55:00,0.0,1.9440,0.0010,405.18,0.23,-1.0,0.0,138.15,26.84,24.58,36.26,0.04,-272.74,-272.74,-48,551,-943,21.6,1.2,-35.1,21.6,1.2,-34.8,5.73,2.48,-32.1,26.6
2012-01-09 00:56:00,0.0,1.9439,0.0008,405.37,0.34,-1.0,0.0,138.15,26.84,24.58,36.25,0.04,-272.74,-272.74,-48,551,-943,21.6,1.2,-35.1,21.6,1.2,-34.7,5.73,2.37,-32.1,26.6
2012-01-09 00:57:00,0.0,1.9436,0.0010,405.21,0.21,-1.0,0.0,138.15,26.84,24.58,36.26,0.04,-272.74,-272.74,-49,551,-942,21.6,1.2,-35.1,21.6,1.2,-34.7,5.73,2.43,-32.1,26.6
2012-01-09 00:58:00,0.0,1.9433,0.0011,405.27,0.22,-1.0,0.0,138.15,26.84,24.58,36.26,0.04,-272.74,-272.74,-48,551,-942,21.6,1.2,-35.1,21.6,1.2,-34.6,5.73,2.52,-32.1,26.6
2012-01-09 00:59:00,0.0,1.9433,0.0011,405.20,0.28,-1.0,0.0,138.15,26.83,24.58,36.26,0.04,-272.74,-272.74,-48,551,-942,21.6,1.2,-35.1,21.6,1.2,-34.7,5.73,2.45,-32.1,26.6
2012-01-09 01:00:00,0.0,1.9434,0.0010,405.28,0.20,-1.0,0.0,138.15,26.83,24.58,36.25,0.04,-272.74,-272.74,-49,550,-942,21.6,1.2,-35.2,21.7,1.2,-34.8,5.73,2.37,-32.1,26.6
2012-01-09 01:01:00,0.0,1.9436,0.0010,405.24,0.25,-1.0,0.0,138.15,26.84,24.58,36.26,0.04,-272.74,-272.74,-48,550,-942,21.6,1.2,-35.4,21.7,1.2,-34.8,5.73,2.44,-32.1,26.6
2012-01-09 01:02:00,0.0,1.9438,0.0010,405.17,0.25,-1.0,0.0,138.15,26.84,24.58,36.26,0.04,-272.74,-272.74,-48,551,-942,21.6,1.2,-35.4,21.6,1.2,-35.1,5.73,2.52,-32.1,26.6
2012-01-09 01:03:00,0.0,1.9438,0.0011,405.23,0.26,-1.0,0.0,138.15,26.84,24.58,36.26,0.04,-272.74,-272.74,-49,551,-942,21.6,1.1,-35.6,21.7,1.2,-35.1,5.73,2.43,-32.1,26.6
2012-01-09 01:04:00,0.0,1.9433,0.0011,405.21,0.22,-1.0,0.0,138.15,26.84,24.58,36.26,0.04,-272.74,-272.75,-48,551,-942,21.6,1.1,-35.6,21.6,1.2,-35.1,5.73,2.37,-32.1,26.6
2012-01-09 01:05:00,0.0,1.9438,0.0012,405.18,0.21,-1.0,0.0,138.15,26.84,24.58,36.26,0.04,-272.74,-272.74,-48,551,-942,21.6,1.2,-35.4,21.6,1.2,-35.1,5.73,2.47,-32.1,26.6
2012-01-09 01:06:00,0.0,1.9431,0.0010,405.25,0.23,-1.0,0.0,138.15,26.84,24.58,36.26,0.04,-272.74,-272.74,-49,551,-942,21.6,1.2,-35.2,21.6,1.2,-34.8,5.73,2.51,-32.1,26.6
2012-01-09 01:07:00,0.0,1.9432,0.0011,405.21,0.26,-0.8,1.8,138.15,26.84,24.58,36.26,0.04,-272.73,-272.74,-49,551,-942,21.6,1.2,-35.0,21.6,1.2,-34.7,5.73,2.40,-32.1,26.6
2012-01-09 01:08:00,0.0,1.9434,0.0009,405.28,0.20,-1.0,0.0,138.15,26.84,24.58,36.25,0.04,-272.74,-272.74,-48,551,-942,21.6,1.2,-34.8,21.6,1.3,-34.5,5.73,2.38,-32.1,26.6
2012-01-09 01:09:00,0.0,1.9438,0.0011,405.26,0.25,-1.0,0.0,138.15,26.84,24.58,36.25,0.04,-272.74,-272.74,-49,551,-942,21.6,1.2,-34.7,21.7,1.3,-34.4,5.73,2.51,-32.1,26.6
2012-01-09 01:10:00,0.0,1.9439,0.0010,405.25,0.26,-1.0,0.0,138.15,26.84,24.58,36.25,0.04,-272.74,-272.74,-49,551,-942,21.6,1.2,-34.7,21.6,1.3,-34.4,5.73,2.48,-32.1,26.6
2012-01-09 01:11:00,0.0,1.9434,0.0009,405.19,0.27,-1.0,0.0,138.15,26.84,24.58,36.26,0.04,-272.74,-272.74,-48,551,-942,21.6,1.2,-34.6,21.6,1.3,-34.3,5.73,2.37,-32.1,26.6
2012-01-09 01:12:00,0.0,1.9434,0.0011,405.30,0.22,-1.0,0.0,138.15,26.84,24.58,36.25,0.04,-272.74,-272.74,-49,550,-942,21.6,1.2,-34.7,21.6,1.3,-34.5,5.73,2.43,-32.1,26.6
2012-01-09 01:13:00,0.0,1.9437,0.0010,405.35,0.26,-1.0,0.0,138.15,26.84,24.58,36.25,0.04,-272.74,-272.74,-49,550,-942,21.6,1.2,-34.6,21.6,1.3,-34.4,5.73,2.52,-32.1,26.6
2012-01-09 01:14:00,0.0,1.9430,0.0010,405.30,0.24,-1.0,0.0,138.15,26.84,24.58,36.26,0.04,-272.74,-272.74,-48,551,-942,21.6,1.2,-34.6,21.6,1.3,-34.4,5.73,2.43,-32.1,26.6
2012-01-09 01:15:00,0.0,1.9437,0.0011,405.25,0.26,-1.0,0.0,138.15,26.84,24.58,36.26,0.04,-272.74,-272.74,-49,551,-942,21.6,1.3,-34.6,21.6,1.3,-34.4,5.73,2.36,-32.1,26.6
2012-01-09 01:16:00,0.0,1.9436,0.0010,405.15,0.23,-1.0,0.0,138.15,26.84,24.58,36.26,0.04,-272.74,-272.75,-49,550,-942,21.6,1.2,-34.6,21.6,1.3,-34.2,5.73,2.47,-32.1,26.6
2012-01-09 01:17:00,0.0,1.9437,0.0011,405.25,0.25,-1.0,0.0,138.15,26.84,24.58,36.26,0.04,-272.74,-272.73,-48,551,-942,21.6,1.2,-34.6,21.6,1.3,-34.2,5.73,2.51,-32.1,26.6
2012-01-09 01:18:00,0.0,1.9435,0.0010,405.25,0.25,-1.0,0.0,138.15,26.85,24.58,36.25,0.04,-272.75,-272.76,-49,551,-942,21.6,1.3,-34.6,21.6,1.3,-34.2,5.73,2.39,-32.2,26.6
2012-01-09 01:19:00,0.0,1.9434,0.0010,405.32,0.22,-1.0,0.0,138.15,26.85,24.58,36.25,0.04,-272.74,-272.73,-49,551,-942,21.6,1.2,-34.6,21.6,1.3,-34.2,5.73,2.40,-32.1,26.6
2012-01-09 01:20:00,0.0,1.9434,0.0008,405.29,0.22,-1.0,0.0,138.15,26.85,24.58,36.25,0.04,-272.73,-272.73,-48,551,-942,21.6,1.3,-34.5,21.6,1.3,-34.2,5.73,2.51,-32.1,26.6
2012-01-09 01:21:00,0.0,1.9434,0.0012,405.31,0.25,-1.0,0.0,138.15,26.85,24.58,36.26,0.04,-272.73,-272.74,-49,551,-942,21.6,1.3,-34.4,21.7,1.3,-34.1,5.73,2.47,-32.2,26.6
2012-01-09 01:22:00,0.0,1.9434,0.0009,405.23,0.24,-1.0,0.0,138.15,26.85,24.58,36.26,0.04,-272.74,-272.73,-49,551,-942,21.6,1.3,-34.4,21.7,1.3,-34.0,5.73,2.36,-32.1,26.6
2012-01-09 01:23:00,0.0,1.9434,0.0011,405.28,0.24,-1.0,0.0,138.15,26.85,24.58,36.26,0.04,-272.73,-272.72,-48,551,-942,21.6,1.3,-34.2,21.7,1.3,-34.0,5.73,2.45,-32.1,26.6
2012-01-09 01:24:00,0.0,1.9437,0.0009,405.22,0.23,-1.0,0.0,138.15,26.85,24.58,36.26,0.04,-272.77,-272.73,-49,551,-942,21.6,1.3,-34.2,21.7,1.4,-33.8,5.73,2.52,-32.2,26.6
2012-01-09 01:25:00,0.0,1.9436,0.0011,405.31,0.23,-1.0,0.0,138.15,26.84,24.58,36.26,0.04,-272.73,-272.74,-49,551,-943,21.6,1.3,-34.1,21.7,1.4,-33.8,5.73,2.41,-32.1,26.6
2012-01-09 01:26:00,0.0,1.9435,0.0010,405.25,0.23,-1.0,0.0,138.15,26.85,24.58,36.26,0.04,-272.74,-272.75,-48,551,-942,21.6,1.3,-34.0,21.7,1.4,-33.6,5.73,2.38,-32.2,26.6
2012-01-09 01:27:00,0.0,1.9435,0.0008,405.30,0.22,-1.0,0.0,138.15,26.85,24.58,36.25,0.04,-272.75,-272.74,-49,551,-942,21.6,1.3,-34.0,21.6,1.4,-33.6,5.73,2.50,-32.1,26.6
2012-01-09 01:28:00,0.0,1.9437,0.0010,405.31,0.20,-1.0,0.0,138.15,26.85,24.58,36.26,0.04,-272.74,-272.74,-49,550,-942,21.6,1.3,-34.0,21.6,1.4,-33.6,5.73,2.50,-32.1,26.6
2012-01-09 01:29:00,0.0,1.9433,0.0010,405.28,0.23,-1.0,0.0,138.16,26.85,24.58,36.25,0.04,-272.74,-272.74,-48,551,-942,21.6,1.3,-34.0,21.7,1.4,-33.6,5.73,2.37,-32.2,26.6
2012-01-09 01:30:00,0.0,1.9437,0.0010,405.12,0.24,-1.0,0.0,138.16,26.85,24.58,36.26,0.04,-272.75,-272.75,-49,551,-942,21.6,1.3,-34.0,21.7,1.4,-33.6,5.73,2.42,-32.1,26.5
2012-01-09 01:31:00,0.0,1.9434,0.0009,405.28,0.28,-1.0,0.0,138.15,26.85,24.58,36.25,0.04,-272.76,-272.74,-49,551,-942,21.6,1.3,-33.9,21.7,1.4,-33.6,5.73,2.52,-32.1,26.5
2012-01-09 01:32:00,0.0,1.9433,0.0011,405.29,0.24,-1.0,0.0,138.16,26.85,24.58,36.26,0.04,-272.73,-272.74,-48,551,-942,21.6,1.3,-33.9,21.7,1.4,-33.6,5.73,2.43,-32.1,26.6
2012-01-09 01:33:00,0.0,1.9430,0.0010,405.24,0.19,-1.0,0.0,138.15,26.85,24.58,36.25,0.04,-272.73,-272.74,-49,551,-942,21.6,1.4,-33.7,21.7,1.4,-33.4,5.73,2.36,-32.1,26.5
2012-01-09 01:34:00,0.0,1.9430,0.0010,405.21,0.24,-1.0,0.0,138.15,26.85,24.58,36.26,0.04,-272.74,-272.75,-49,551,-942,21.6,1.4,-33.6,21.7,1.4,-33.2,5.73,2.48,-32.1,26.6
2012-01-09 01:35:00,0.0,1.9429,0.0010,405.18,0.23,-1.0,0.0,138.15,26.85,24.58,36.26,0.04,-272.73,-272.74,-48,550,-942,21.6,1.4,-33.4,21.6,1.4,-33.1,5.73,2.51,-32.1,26.5
2012-01-09 01:36:00,0.0,1.9431,0.0012,405.26,0.25,-1.0,0.0,138.16,26.85,24.58,36.26,0.04,-272.74,-272.74,-49,551,-942,21.7,1.4,-33.4,21.7,1.5,-33.0,5.73,2.38,-32.1,26.5
2012-01-09 01:37:00,0.0,1.9427,0.0012,405.11,0.21,-1.0,0.0,138.15,26.85,24.58,36.26,0.04,-272.74,-272.74,-49,550,-942,21.6,1.4,-33.2,21.7,1.5,-32.9,5.73,2.41,-32.1,26.5
2012-01-09 01:38:00,0.0,1.9432,0.0012,405.24,0.21,-1.0,0.0,138.15,26.85,24.58,36.25,0.04,-272.74,-272.74,-48,551,-942,21.6,1.4,-33.2,21.7,1.5,-32.8,5.73,2.52,-32.1,26.6
2012-01-09 01:39:00,0.0,1.9437,0.0011,405.30,0.26,-1.0,0.0,138.15,26.85,24.58,36.25,0.04,-272.74,-272.74,-49,551,-942,21.6,1.4,-33.2,21.7,1.5,-32.8,5.73,2.45,-32.1,26.5
2012-01-09 01:40:00,0.0,1.9427,0.0009,405.20,0.23,-1.0,0.0,138.15,26.85,24.58,36.26,0.04,-272.74,-272.74,-49,551,-942,21.7,1.4,-33.1,21.7,1.5,-32.8,5.73,2.36,-32.1,26.6
2012-01-09 01:41:00,0.0,1.9433,0.0009,405.27,0.22,-1.0,0.0,138.15,26.85,24.58,36.26,0.04,-272.74,-272.74,-48,551,-942,21.6,1.4,-33.2,21.6,1.5,-32.8,5.73,2.46,-32.1,26.6
2012-01-09 01:42:00,0.0,1.9432,0.0011,405.23,0.25,-1.0,0.0,138.15,26.86,24.58,36.26,0.04,-272.74,-272.74,-49,550,-942,21.6,1.5,-33.0,21.7,1.5,-32.7,5.73,2.51,-32.1,26.6
2012-01-09 01:43:00,0.0,1.9433,0.0009,405.26,0.26,-1.0,0.0,138.15,26.85,24.58,36.25,0.04,-272.75,-272.74,-49,551,-942,21.6,1.5,-32.9,21.7,1.5,-32.6,5.73,2.40,-32.1,26.6
2012-01-09 01:44:00,0.0,1.9441,0.0012,405.22,0.21,-1.0,0.0,138.15,26.85,24.58,36.26,0.04,-272.76,-272.74,-48,551,-942,21.6,1.5,-33.0,21.6,1.5,-32.6,5.73,2.38,-32.1,26.6
2012-01-09 01:45:00,0.0,1.9448,0.0012,405.26,0.26,-1.0,0.0,138.15,26.85,24.58,36.26,0.04,-272.73,-272.74,-49,551,-942,21.6,1.5,-33.0,21.6,1.5,-32.6,5.73,2.51,-32.2,26.6
2012-01-09 01:46:00,0.0,1.9442,0.0010,405.27,0.27,-1.0,0.0,138.15,26.86,24.58,36.25,0.04,-272.73,-272.74,-49,551,-942,21.7,1.5,-33.0,21.6,1.5,-32.7,5.73,2.46,-32.1,26.6
2012-01-09 01:47:00,0.0,1.9435,0.0011,405.25,0.25,-1.0,0.0,138.15,26.86,24.58,36.25,0.04,-272.73,-272.75,-48,550,-942,21.6,1.4,-33.1,21.7,1.5,-32.8,5.73,2.36,-32.2,26.6
2012-01-09 01:48:00,0.0,1.9437,0.0010,405.25,0.25,-1.0,0.0,138.15,26.86,24.58,36.25,0.04,-272.75,-272.74,-49,551,-942,21.6,1.4,-33.2,21.7,1.5,-32.9,5.73,2.45,-32.2,26.6
2012-01-09 01:49:00,0.0,1.9428,0.0010,405.23,0.30,-1.0,0.0,138.15,26.86,24.58,36.26,0.04,-272.74,-272.74,-49,551,-942,21.6,1.4,-33.4,21.6,1.5,-33.0,5.73,2.52,-32.1,26.6
2012-01-09 01:50:00,0.0,1.9430,0.0009,405.21,0.23,-1.0,0.0,138.15,26.86,24.58,36.25,0.04,-272.74,-272.77,-48,551,-942,21.6,1.4,-33.3,21.7,1.5,-33.0,5.73,2.39,-32.1,26.6
2012-01-09 01:51:00,0.0,1.9432,0.0012,405.23,0.24,-1.0,0.0,138.15,26.86,24.58,36.25,0.04,-272.73,-272.74,-49,551,-942,21.6,1.4,-33.4,21.6,1.5,-33.1,5.73,2.39,-32.1,26.6
2012-01-09 01:52:00,0.0,1.9433,0.0014,405.25,0.21,-1.0,0.0,138.15,26.85,24.58,36.26,0.04,-272.74,-272.72,-48,550,-942,21.6,1.4,-33.5,21.6,1.4,-33.2,5.73,2.52,-32.1,26.6
2012-01-09 01:53:00,0.0,1.9443,0.0012,405.28,0.26,-0.9,0.7,138.15,26.85,24.58,36.25,0.04,-272.73,-272.73,-48,551,-942,21.6,1.4,-33.6,21.6,1.4,-33.2,5.73,2.45,-32.1,26.6
2012-01-09 01:54:00,0.0,1.9450,0.0011,405.38,0.26,-1.0,0.0,138.15,26.86,24.58,36.24,0.04,-272.73,-272.74,-49,551,-942,21.7,1.4,-33.8,21.6,1.4,-33.4,5.73,2.36,-32.1,26.7
2012-01-09 01:55:00,0.0,1.9457,0.0014,405.33,0.23,-1.0,0.0,138.15,26.86,24.58,36.25,0.04,-272.74,-272.75,-48,550,-942,21.6,1.4,-33.7,21.6,1.4,-33.4,5.73,2.47,-32.1,26.7
2012-01-09 01:56:00,0.0,1.9451,0.0010,405.24,0.25,-1.0,0.0,138.15,26.86,24.58,36.26,0.04,-272.74,-272.74,-48,551,-942,21.6,1.4,-33.8,21.6,1.4,-33.4,5.73,2.51,-32.1,26.7
2012-01-09 01:57:00,0.0,1.9447,0.0011,405.27,0.23,-1.0,0.0,138.15,26.86,24.58,36.26,0.04,-272.74,-272.74,-49,551,-942,21.6,1.4,-33.8,21.6,1.4,-33.4,5.73,2.38,-32.1,26.7
2012-01-09 01:58:00,0.0,1.9442,0.0010,405.22,0.27,-1.0,0.0,138.15,26.86,24.58,36.26,0.04,-272.74,-272.73,-48,551,-942,21.6,1.4,-33.8,21.6,1.4,-33.4,5.73,2.41,-32.1,26.7
2012-01-09 01:59:00,0.0,1.9438,0.0011,405.16,0.24,-1.0,0.0,138.15,26.86,24.58,36.26,0.04,-272.75,-272.74,-49,551,-942,21.7,1.4,-33.6,21.7,1.4,-33.4,5.73,2.53,-32.1,26.6
2012-01-09 02:00:00,0.0,1.9443,0.0009,405.27,0.21,-1.0,0.0,138.15,26.86,24.58,36.25,0.04,-272.75,-272.75,-49,550,-942,21.6,1.4,-33.8,21.6,1.4,-33.4,5.73,2.44,-32.1,26.6
2012-01-09 02:01:00,0.0,1.9439,0.0011,405.21,0.26,-1.0,0.0,138.15,26.86,24.58,36.26,0.04,-272.73,-272.74,-48,551,-942,21.7,1.3,-33.8,21.6,1.4,-33.4,5.73,2.37,-32.1,26.6
2012-01-09 02:02:00,0.0,1.9443,0.0008,405.19,0.20,-1.0,0.0,138.15,26.86,24.58,36.26,0.04,-272.74,-272.75,-49,551,-942,21.6,1.4,-33.8,21.6,1.4,-33.6,5.73,2.49,-32.1,26.7
2012-01-09 02:03:00,0.0,1.9444,0.0010,405.34,0.24,-1.0,0.0,138.15,26.86,24.58,36.25,0.04,-272.73,-272.74,-49,551,-942,21.7,1.3,-34.0,21.7,1.4,-33.6,5.73,2.50,-32.1,26.6
2012-01-09 02:04:00,0.0,1.9444,0.0012,405.26,0.24,-1.0,0.0,138.15,26.86,24.58,36.26,0.04,-272.75,-272.74,-48,551,-942,21.6,1.3,-33.9,21.6,1.4,-33.6,5.73,2.36,-32.1,26.6
2012-01-09 02:05:00,0.0,1.9444,0.0011,405.21,0.24,-1.0,0.0,138.15,26.86,24.58,36.26,0.04,-272.74,-272.74,-49,551,-942,21.6,1.3,-34.0,21.6,1.4,-33.6,5.73,2.43,-32.0,26.6
2012-01-09 02:06:00,0.0,1.9449,0.0009,405.24,0.26,-1.0,0.0,138.15,26.86,24.58,36.25,0.04,-272.74,-272.74,-49,551,-942,21.7,1.3,-33.9,21.6,1.4,-33.7,5.73,2.53,-32.1,26.5
2012-01-09 02:07:00,0.0,1.9439,0.0010,405.20,0.22,-1.0,0.0,138.15,26.86,24.58,36.26,0.04,-272.74,-272.74,-48,551,-942,21.6,1.3,-34.0,21.7,1.4,-33.7,5.73,2.41,-32.0,26.6
2012-01-09 02:08:00,0.0,1.9436,0.0008,405.28,0.23,-1.0,0.0,138.15,26.86,24.58,36.25,0.04,-272.73,-272.74,-49,551,-942,21.6,1.3,-33.9,21.7,1.4,-33.5,5.73,2.37,-32.1,26.6
2012-01-09 02:09:00,0.0,1.9445,0.0010,405.19,0.25,-1.0,0.0,138.15,26.86,24.58,36.26,0.04,-272.73,-272.74,-49,551,-942,21.6,1.3,-33.9,21.6,1.4,-33.6,5.73,2.50,-32.0,26.6
2012-01-09 02:10:00,0.0,1.9444,0.0012,405.14,0.23,-1.0,0.0,138.15,26.86,24.58,36.26,0.04,-272.74,-272.74,-48,551,-942,21.6,1.4,-33.7,21.6,1.4,-33.6,5.73,2.48,-32.0,26.6
2012-01-09 02:11:00,0.0,1.9445,0.0009,405.22,0.24,-1.0,0.0,138.15,26.86,24.58,36.26,0.04,-272.74,-272.75,-49,551,-942,21.6,1.4,-33.8,21.7,1.4,-33.5,5.73,2.36,-32.0,26.6
2012-01-09 02:12:00,0.0,1.9443,0.0011,405.26,0.19,-1.0,0.0,138.15,26.86,24.58,36.25,0.04,-272.74,-272.74,-48,551,-942,21.7,1.4,-33.8,21.6,1.4,-33.4,5.73,2.46,-32.0,26.6
2012-01-09 02:13:00,0.0,1.9446,0.0010,405.19,0.23,-1.0,0.0,138.15,26.86,24.58,36.26,0.04,-272.74,-272.74,-48,551,-942,21.6,1.4,-33.6,21.7,1.4,-33.2,5.73,2.52,-32.0,26.6
2012-01-09 02:14:00,0.0,1.9442,0.0010,405.19,0.22,-1.0,0.0,138.15,26.86,24.58,36.26,0.04,-272.74,-272.74,-49,551,-942,21.6,1.4,-33.4,21.7,1.4,-33.1,5.73,2.38,-32.0,26.6
2012-01-09 02:15:00,0.0,1.9444,0.0010,405.27,0.23,-1.0,0.0,138.15,26.86,24.58,36.26,0.04,-272.74,-272.74,-48,551,-942,21.6,1.4,-33.3,21.7,1.5,-33.0,5.73,2.40,-32.0,26.6
2012-01-09 02:16:00,0.0,1.9444,0.0013,405.24,0.18,-1.0,0.0,138.15,26.86,24.58,36.25,0.04,-272.73,-272.74,-48,551,-942,21.6,1.4,-33.4,21.6,1.5,-33.0,5.73,2.52,-32.0,26.6
2012-01-09 02:17:00,0.0,1.9443,0.0012,405.25,0.27,-1.0,0.0,138.15,26.87,24.58,36.26,0.04,-272.74,-272.74,-49,550,-942,21.7,1.4,-33.3,21.6,1.5,-33.0,5.73,2.43,-32.0,26.6
2012-01-09 02:18:00,0.0,1.9441,0.0010,405.29,0.22,-1.0,0.0,138.15,26.87,24.58,36.25,0.04,-272.73,-272.74,-48,551,-942,21.6,1.4,-33.4,21.7,1.4,-33.2,5.73,2.37,-32.0,26.6